Torna al catalogo

OPS 4682 DEB

AttivoPO
NORAD 38414·DEBRIS·🇺🇸 United States

Lanciato Apr 3, 1965 da Vandenberg Space Force Base

Loading…

Prossimi Passaggi (prossime 24 ore)

TLE

In scadenzaSource: Space-Track

Epoca: Sep 8, 2026, 01:00 UTC

1 38414U 65027DT  26251.04220521  .00000724  00000-0  24402-2 0  9999
2 38414  90.2373 354.1592 0038478 246.7195 112.9874 12.98118567151556

Traccia OPS 4682 DEB in tempo reale con AllMySat

Download on the App Store